EHI
0 0 0 0 0 0 0 0 0 0 0 0 0 0 0 0 0 0 0 0 0 0 0 0 0 0 0 0 0 0 0 0 0 0 0 0 0 0
0 0 0 0 0 0 0 0 0 0 0 0 0 0 0 0 0 0 0 0 0 0 0 0 0 0 0 0 0 0 0 0 0 0 0 0 0 0
0 0 0 0 0 0 0 0 0 0 0 0 0 0 0 0 0 0 0 0 0 0 0 0 0 0 0 0 0 0 0 0 0 0 0 0 0 0
0 0 0 0 0 0 0 0 0 0 0 0 0 0 0 0 0 0 0 0 0 0 0 0 0 0 0 0 0 0 0 0 0 0 0 0 0 0
0 0 0 0 0 0 0 0 0 0 0 0 0 0 0 0 0 0 0 0 0 0 0 0 0 0 0 0 0 0 0 0 0 0 0 0 0 0
0 0 0 0 0 0 0 0 0 0 0 0 0 0 0 0 0 0 0 0 0 0 0 0 0 0 0 0 0 0 0 0 0 0 0 0 0 0
0 0 0 0 0 0 0 0 0 0 0 0 0 0 0 0 0 0 0 0 0 0 0 0 0 0 0 0 0 0 0 0 0 0 0 0 0 0
0 0 0 0 0 0 0 0 0 0 0 0 0 0 0 0 0 0 0 0 0 0 0 0 0 0 0 0 0 0 0 0 0 0 0 0 0 0
0 0 0 0 0 0 0 0 0 0 0 0 0 0 0 0 0 0 0 0 0 0 0 0 0 0 0 0 0 0 0 0 0 0 0 0 0 0
0 0 0 0 0 0 0 0 0 0 0 0 0 0 0 0 0 0 0 0 0 0 0 0 0 0 0 0 0 0 0 0 0 0 0 0 0 0
0 0 0 0 0 0 0 0 0 0 0 0 0 0 0 0 0 0 0 0 0 0 0 0 0 0 0 0 0 0 0 0 0 0 0 0 0 0
0 0 0 0 0 0 0 0 0 0 0 0 0 0 0 0 0 0 0 0 0 0 0 0 0 0 0 0 0 0 0 0 0 0 0 0 0 0
0 0 0 0 0 0 0 0 0 0 0 0 0 0 0 0 0 0 0 0 0 0 0 0 0 0 0 0 0 0 0 0 0 0 0 0 0 0
0 0 0 0 0 0 0 0 0 0 0 0 0 0 0 0 0 0 0 0 0 0 0 0 0 0 0 0 0 0 0 0 0 0 0 0 0 0
0 0 0 0 0 0 0 0 0 0 0 0 0 0 0 0 0 0 0 0 0 0 0 0 0 0 0 0 0 0 0 0 0 0 0 0 0 0
0 0 0 0 0 0 0 0 0 0 0 0 0 0 0 0 0 0 0 0 0 0 0 0 0 0 0 0 0 0 0 0 0 0 0 0 0 0
0 0 0 0 0 0 0 0 0 0 0 0 0 0 0 0 0 0 0 0 0 0 0 0 0 0 0 0 0 0 0 0 0 0 0 0 0 0
0 0 0 0 0 0 0 0 0 0 0 0 0 0 0 0 0 0 0 0 0 0 0 0 0 0 0 0 0 0 0 0 0 0 0 0 0 0
0 0 0 0 0 0 0 0 0 0 0 0 0 0 0 0 0 0 0 0 0 0 0 0 0 0 0 0 0 0 0 0 0 0 0 0 0 0
0 0 0 0 0 0 0 0 0 0 0 0 0 0 0 0 0 0 0 0 0 0 0 0 0 0 0 0 0 0 0 0 0 0 0 0 0 0
0 0 0 0 0 0 0 0 0 0 0 0 0 0 0 0 0 0 0 0 0 0 0 0 0 0 0 0 0 0 0 0 0 0 0 0 0 0
0 0 0 0 0 0 0 0 0 0 0 0 0 0 0 0 0 0 0 0 0 0 0 0 0 0 0 0 0 0 0 0 0 0 0 0 0 0
0 0 0 0 0 0 0 0 0 0 0 0 0 0 0 0 0 0 0 0 0 0 0 0 0 0 0 0 0 0 0 0 0 0 0 0 0 0
Wind_Speed
3 3 3 3 3 3 3 3 4 5 5 2 1 1 1 1 3 3 3 6 7 7 7 7 7 7 8 8 8 8 8 8 8 9 9 9 9 10
2 3 3 2 2 2 2 3 3 4 5 2 1 2 2 3 4 3 3 6 6 7 7 6 6 6 7 7 6 7 7 7 8 8 8 8 9 9
2 2 3 3 2 2 2 2 3 3 5 4 2 2 2 3 4 3 3 3 3 6 7 7 7 6 6 6 6 7 7 7 7 7 8 9 10 10
3 3 3 3 3 3 3 3 3 3 4 6 3 2 3 3 3 4 4 3 3 5 6 6 6 6 6 6 6 6 6 6 6 7 8 8 9 10
3 3 3 3 3 3 3 3 3 3 3 4 4 2 2 2 3 4 4 3 4 5 5 5 5 6 6 6 5 6 6 6 6 6 7 7 9 10
3 3 4 4 4 4 3 4 3 3 3 3 3 3 2 2 2 3 4 3 3 3 4 4 5 6 6 6 6 6 6 6 6 6 6 7 8 9
4 4 4 5 6 4 3 3 3 3 3 3 3 3 3 2 2 2 4 4 4 2 2 3 3 3 3 5 5 5 6 6 6 6 6 7 8 9
4 4 4 5 5 6 7 6 4 4 4 3 3 4 4 3 3 3 3 3 4 2 2 4 2 3 3 2 5 6 5 6 6 6 6 8 8 10
4 4 4 4 4 4 5 6 6 7 6 4 4 5 4 4 4 4 4 4 4 3 3 4 2 3 3 3 6 6 5 6 6 7 8 8 9 10
4 4 4 4 4 4 3 3 4 4 5 3 4 4 4 4 4 4 4 4 4 2 2 3 3 3 4 3 5 5 5 6 7 8 8 9 9 9
4 4 4 4 6 6 3 3 4 4 5 5 5 5 6 6 4 2 3 3 3 2 1 2 3 3 3 3 3 5 6 7 8 8 8 9 9 9
3 3 5 5 6 6 3 3 4 4 3 3 3 4 4 4 4 3 2 3 3 3 1 1 2 2 3 2 2 2 3 6 8 9 9 9 9 5
3 3 3 6 7 6 5 3 5 4 2 2 2 2 2 2 2 1 1 2 3 3 2 1 2 2 2 4 3 3 3 3 4 5 7 9 10 7
3 3 3 6 6 6 4 4 5 4 1 1 2 2 2 2 2 2 2 2 2 4 3 2 2 3 3 4 5 3 3 3 3 4 4 7 8 10
3 5 5 5 5 3 4 5 4 1 1 1 2 2 2 2 2 2 2 2 2 3 3 3 3 3 4 4 5 4 4 4 3 3 4 4 5 5
2 3 4 4 2 2 3 3 1 1 1 2 2 2 1 1 1 1 2 2 2 3 3 2 3 3 4 5 5 6 4 4 4 4 5 5 5 5
1 1 1 1 1 1 1 1 1 1 2 1 1 1 2 2 2 1 1 2 2 3 3 3 3 3 4 5 4 5 5 4 4 5 5 7 6 5
2 2 2 2 2 2 2 2 2 2 1 1 1 2 2 2 2 2 1 1 2 3 3 3 3 3 3 3 5 5 4 4 4 5 5 6 8 6
3 2 3 3 2 2 2 2 2 2 1 1 2 1 1 1 1 2 2 2 3 3 3 2 2 2 3 5 4 3 4 5 5 5 5 5 8 8
2 3 3 3 3 2 2 2 2 2 1 2 2 1 2 2 2 2 2 3 3 3 3 2 2 2 3 4 5 5 6 6 5 6 6 6 7 10
3 3 3 3 3 2 2 2 2 2 2 2 2 2 2 2 2 2 2 4 3 3 3 3 3 5 3 2 4 5 5 7 8 7 7 7 7 7
3 3 3 3 3 3 2 2 2 2 2 2 2 2 2 2 2 3 3 3 3 3 3 4 3 3 2 3 5 6 7 7 7 10 10 9 6 6
3 3 3 3 3 2 2 3 3 3 2 2 2 2 2 2 2 2 2 2 2 3 3 3 3 3 3 3 4 5 7 8 6 6 6 9 11 14
Wind_Direction
277 278 274 276 278 273 265 254 258 275 275 259 267 302 308 299 309 296 294 305 300 296 295 296 298 300 298 293 293 290 290 288 286 279 272 272 275 278
278 281 284 283 283 278 273 267 256 257 270 270 269 294 303 315 316 302 291 307 307 304 299 299 298 299 298 297 298 299 296 293 287 284 277 272 274 277
289 285 287 289 285 281 272 268 266 260 266 279 267 281 281 291 302 300 292 286 291 302 299 302 298 294 293 295 298 300 298 298 297 293 291 281 276 276
280 280 285 290 284 281 275 268 264 261 259 273 280 279 272 280 293 296 303 303 286 298 299 300 298 298 297 295 297 298 299 299 301 299 294 291 284 281
270 269 277 281 284 287 283 274 268 267 258 259 274 277 278 284 295 294 293 291 298 301 301 296 297 305 304 302 302 302 301 299 301 302 303 300 295 288
265 263 267 265 266 271 276 279 274 268 262 259 265 273 276 276 281 294 302 302 297 302 302 305 303 306 302 298 299 301 299 297 299 301 304 305 304 299
269 267 267 268 267 269 273 276 278 275 267 262 264 270 272 280 282 284 290 304 290 284 297 292 290 281 285 288 291 292 299 297 295 297 303 305 305 303
267 272 277 276 277 280 282 279 272 267 266 261 265 268 275 270 269 273 280 296 294 294 302 294 277 271 273 262 287 293 297 300 301 302 305 308 307 305
256 263 275 279 284 281 285 291 288 280 268 256 256 262 270 262 262 265 265 270 267 282 304 286 287 280 283 291 299 296 299 305 305 308 311 308 306 305
252 255 261 274 276 279 281 282 280 280 277 265 246 258 261 258 250 259 263 273 273 274 271 277 290 283 296 290 295 292 298 305 311 313 312 311 310 307
259 258 258 265 279 285 284 280 286 293 296 288 289 294 286 279 270 257 262 269 280 283 276 267 289 297 289 279 289 306 309 311 316 315 315 318 316 313
264 261 265 270 280 288 277 270 279 287 297 306 309 314 310 299 284 249 242 253 265 273 264 277 284 315 306 281 272 287 297 308 315 316 315 315 315 309
256 261 266 281 283 284 281 265 272 287 284 288 298 303 307 308 304 280 252 240 247 256 264 293 277 287 274 293 294 280 279 292 304 305 309 311 311 309
246 253 262 279 285 289 289 281 291 303 302 293 300 301 304 308 313 308 288 269 255 258 267 258 252 261 273 283 288 296 299 295 294 294 293 304 306 305
244 252 263 277 289 294 290 296 305 307 272 273 281 287 288 292 308 321 327 325 323 304 290 267 246 255 261 265 277 289 302 299 286 288 297 298 290 290
252 258 270 271 270 276 300 308 304 264 258 262 277 284 296 308 318 328 322 328 324 314 314 304 274 255 262 266 264 275 276 276 290 296 295 291 285 274
222 208 236 268 272 289 298 295 293 291 275 265 267 282 297 308 312 321 309 309 293 296 310 319 305 279 263 262 266 265 273 276 277 291 297 295 288 279
211 214 232 234 243 252 263 275 276 267 261 261 264 268 282 290 302 308 304 284 283 289 294 301 313 318 310 285 241 257 269 276 284 289 288 290 290 287
222 226 235 236 240 243 246 253 262 265 255 244 247 253 264 276 285 289 289 285 283 285 286 287 291 301 311 308 299 256 270 289 295 293 285 283 286 291
221 229 236 236 234 236 240 247 256 263 255 247 244 245 245 255 268 274 275 274 282 287 290 287 274 264 265 279 289 292 288 279 284 291 295 294 286 287
231 235 236 235 235 232 236 239 241 242 245 245 245 245 240 244 256 263 268 275 284 282 285 288 280 294 284 285 287 287 288 284 282 282 291 297 300 298
232 236 239 235 232 229 229 229 234 237 237 240 243 243 241 240 249 257 263 271 279 279 281 288 294 302 290 276 283 290 298 304 305 300 288 274 276 282
234 235 236 234 232 228 227 225 227 236 235 235 238 240 239 246 253 258 265 271 279 284 289 297 306 304 287 271 279 288 294 303 310 314 306 298 291 282